[[{"header":{"parameterUnit":"m.s-1","parameterCategory":1,"la1":30.2991,"la2":30.254,"lo1":-89.0895,"lo2":-89.0444,"dy":0.0017,"dx":0.0017,"nx":28,"ny":28,"refTime":"2025-08-20T21:00:00:Z","depth":0,"parameterNumber":2,"parameterNumberName":"U-component_of_WINDS"},"data":[0,0,0,0,0,0,0,0,0,0,0,0,0,0,0,0,0,0,0,0,0,0,0,0,0,0,0,0,0,0,0,0,0,0,0,0,0,0,0,0,0,0,0,0,0,0,0,0,0,0,0,0,0,0,0,0,0,0,-0.93,-0.9299,0,-0.9189,-0.9187,-0.9186,-0.908,-0.9078,-0.9077,-0.9076,-0.896,-0.8959,-0.8957,0,0,0,0,0,0,0,0,0,0,0,0,0,-0.942,-0.9418,-0.9301,-0.9299,-0.9298,-0.9189,-0.9187,-0.9186,-0.908,-0.9078,-0.9077,-0.9075,-0.8961,-0.8959,-0.8957,0,0,0,0,0,0,0,0,0,0,0,0,0,-0.9344,-0.9418,-0.9301,-0.9232,-0.9225,-0.9189,-0.9187,-0.9185,-0.908,-0.9078,-0.9076,-0.9074,-0.8962,-0.8959,-0.8956,-0.898,0,0,-0.8948,-0.8947,0,0,0,0,0,0,0,0,-0.9349,-0.934,-0.9243,-0.9237,-0.9228,-0.9146,-0.9187,-0.9117,-0.9081,-0.9135,-0.9076,-0.9073,-0.9024,-0.9016,-0.8999,-0.8975,-0.897,-0.8948,-0.8946,-0.8945,-0.8944,0,0,0,0,0,0,0,-0.9354,-0.9344,-0.9256,-0.9242,-0.9233,-0.9206,-0.9193,-0.9173,-0.9092,-0.913,-0.9122,-0.911,-0.9019,-0.9002,-0.8996,-0.8968,-0.8948,-0.8946,-0.8944,-0.8943,-0.8954,-0.8956,0,0,0,0,0,0,-0.937,-0.9349,-0.926,-0.9253,-0.9285,-0.9205,-0.9191,-0.9174,-0.9092,-0.9077,-0.9112,-0.9106,-0.9008,-0.8999,-0.8991,-0.9011,-0.8945,-0.8943,-0.8941,-0.8952,-0.8954,-0.8956,0,0,0,0,0,0,-0.9373,-0.9363,-0.9264,-0.9299,-0.9284,-0.9205,-0.9188,-0.9173,-0.9156,-0.9078,-0.9063,-0.911,-0.9006,-0.8995,-0.8983,-0.9006,-0.8941,-0.8939,-0.895,-0.8953,-0.8955,-0.9053,0,0,0,0,0,0,-0.9377,-0.9365,-0.9374,-0.93,-0.9283,-0.9259,-0.9189,-0.9173,-0.9152,-0.9142,-0.9072,-0.9059,-0.9003,-0.8988,-0.898,-0.9001,-0.8937,-0.8947,-0.8951,-0.8954,-0.9048,-0.9059,-0.9069,0,0,0,0,0,-0.9382,-0.9406,-0.9375,-0.9365,-0.9292,-0.9261,-0.9251,-0.9187,-0.9154,-0.9162,-0.9111,-0.9061,-0.9005,-0.8987,-0.8978,-0.8998,-0.8945,-0.895,-0.8954,-0.9043,-0.9057,-0.9069,0,0,0,0,0,0,-0.9486,-0.9396,-0.936,-0.9361,-0.9319,-0.9243,-0.9251,-0.9204,-0.9171,-0.9163,-0.9085,-0.907,-0.9067,-0.9031,-0.9013,-0.9015,-0.8968,-0.8971,-0.9039,-0.9051,-0.9062,-0.907,-0.8934,0,0,0,0,0,-0.9509,-0.9491,-0.9413,-0.9422,-0.9403,-0.9331,-0.9314,-0.9269,-0.9222,-0.9204,-0.9153,-0.9109,-0.9081,-0.9064,-0.9034,-0.9042,-0.9024,-0.9051,-0.9062,-0.9071,-0.9074,-0.9073,-0.9083,-0.897,-0.897,-0.897,0,0,-0.9557,-0.9505,-0.9499,-0.9442,-0.9404,-0.9386,-0.9316,-0.9301,-0.9287,-0.9201,-0.9186,-0.9147,-0.9093,-0.909,-0.9086,-0.906,-0.9101,-0.9077,-0.9085,-0.9082,-0.9078,-0.9089,-0.9099,-0.8973,-0.8973,-0.8972,0,0,-0.9634,-0.9594,-0.9596,-0.9559,-0.9502,-0.9454,-0.9454,-0.9384,-0.9354,-0.9338,-0.9273,-0.9254,-0.9208,-0.9171,-0.9147,-0.9208,-0.9159,-0.92,-0.9256,-0.9256,-0.9265,-0.9272,-0.9292,-0.93,-0.9204,-0.9204,-0.9204,0,-0.97,-0.9672,-0.9603,-0.9591,-0.9567,-0.9488,-0.9488,-0.9456,-0.9392,-0.9377,-0.9349,-0.9288,-0.9246,-0.9232,-0.9247,-0.9231,-0.9227,-0.9208,-0.9269,-0.9276,-0.9282,-0.93,-0.9308,-0.9209,-0.9209,-0.9208,-0.9208,0,-0.9755,-0.9736,-0.9744,-0.9684,-0.9661,-0.9656,-0.9585,-0.9569,-0.9525,-0.9479,-0.9462,-0.9409,-0.9365,-0.9359,-0.9316,-0.9338,-0.9324,-0.9284,-0.9234,-0.9299,-0.9314,-0.9321,-0.9217,-0.9215,-0.9213,-0.9212,0,0,-0.9896,-0.9797,-0.9801,-0.9771,-0.9702,-0.9685,-0.9675,-0.9632,-0.962,-0.9578,-0.9567,-0.9529,-0.949,-0.9462,-0.9414,-0.9414,-0.9463,-0.9373,-0.9371,-0.939,-0.9481,-0.9511,-0.9521,-0.943,-0.9432,-0.9432,-0.9485,0,-0.9961,-0.9938,-0.9875,-0.9872,-0.9852,-0.9775,-0.9766,-0.9722,-0.9678,-0.9654,-0.9605,-0.9579,-0.9531,-0.9513,-0.951,-0.9458,-0.948,-0.9453,-0.9417,-0.9417,-0.9433,-0.9529,-0.9561,-0.9614,-0.9491,-0.9492,-0.9493,0,-1.0034,-0.9996,-0.9991,-0.9919,-0.9909,-0.9902,-0.9856,-0.9835,-0.9782,-0.975,-0.9718,-0.9664,-0.9647,-0.9602,-0.9577,-0.956,-0.9541,-0.9513,-0.9514,-0.9507,-0.9459,-0.9524,-0.9629,-0.9637,-0.9502,-0.9501,-0.9501,0,-1.0135,-1.0083,-1.0072,-1.005,-0.9967,-0.9964,-0.9929,-0.9874,-0.9852,-0.9812,-0.9796,-0.9755,-0.9732,-0.9701,-0.9637,-0.961,-0.9618,-0.9568,-0.9589,-0.9591,-0.9594,-0.9595,-0.9697,-0.9585,-0.9585,-0.9584,-0.9584,0,-1.0214,-1.0213,-1.0116,-1.011,-1.0106,-1.0032,-1.003,-0.9988,-0.9939,-0.9922,-0.9854,-0.9839,-0.9755,-0.973,-0.968,-0.9665,-0.9656,-0.9628,-0.9615,-0.9634,-0.9637,-0.962,-0.9614,-0.9586,-0.9586,-0.9586,-0.9585,0,-1.0327,-1.0262,-1.0245,-1.0167,-1.0148,-1.0148,-1.0081,-1.0071,-1.0022,-1.0001,-0.9991,-0.9915,-0.9882,-0.9814,-0.9763,-0.9729,-0.9725,-0.9702,-0.9743,-0.9735,-0.9759,-0.9757,-0.9853,-0.9861,-0.9746,-0.9747,-0.9748,0,-1.0381,-1.0378,-1.0299,-1.0283,-1.0251,-1.0225,-1.0201,-1.0128,-1.0106,-1.0044,-1.0041,-1.0002,-0.9967,-0.9917,-0.9856,-0.9816,-0.979,-0.9826,-0.9784,-0.9802,-0.9789,-0.9789,-0.9787,-0.9836,-0.9838,-0.9839,-0.984,0,-1.0482,-1.045,-1.0419,-1.0376,-1.0349,-1.0312,-1.0271,-1.0261,-1.0178,-1.0157,-1.0121,-1.0094,-1.004,-1.0002,-0.9952,-0.9914,-0.9863,-0.9854,-0.9856,-0.9876,-0.9899,-0.9885,-0.9768,-0.9852,-0.9851,-0.985,-0.9849,-0.9849,-1.0566,-1.0559,-1.0502,-1.0469,-1.043,-1.0393,-1.0379,-1.0328,-1.0297,-1.0248,-1.0206,-1.0174,-1.0118,-1.0045,-1.0011,-0.9984,-0.9959,-0.9963,-0.9964,-0.9966,-0.9973,-0.9904,-0.9975,-0.9974,-0.9974,-0.9974,-0.9973,0,-1.0663,-1.0622,-1.0592,-1.0536,-1.051,-1.0463,-1.0415,-1.0395,-1.0368,-1.0321,-1.0287,-1.0245,-1.0207,-1.0142,-1.0098,-1.0089,-1.0064,-1.008,-1.0079,-1.0071,-0.9999,-1.0,-1.01,-1.01,-1.01,-1.01,-1.01,-1.01,-1.071,-1.0695,-1.0656,-1.062,-1.0579,-1.0547,-1.0523,-1.0487,-1.0449,-1.0405,-1.0373,-1.0331,-1.0276,-1.0227,-1.0189,-1.017,-1.0157,-1.018,-1.0154,-1.0088,-1.0076,-1.0065,-1.0066,-1.0178,-1.0178,-1.0228,-1.0228,-1.0228]},{"header":{"parameterUnit":"m.s-1","parameterCategory":1,"la1":30.2991,"la2":30.254,"lo1":-89.0895,"lo2":-89.0444,"dy":0.0017,"dx":0.0017,"nx":28,"ny":28,"refTime":"2025-08-20T21:00:00:Z","depth":0,"parameterNumber":3,"parameterNumberName":"V-component_of_WINDS"},"data":[0,0,0,0,0,0,0,0,0,0,0,0,0,0,0,0,0,0,0,0,0,0,0,0,0,0,0,0,0,0,0,0,0,0,0,0,0,0,0,0,0,0,0,0,0,0,0,0,0,0,0,0,0,0,0,0,0,0,-0.112,-0.1121,0,-0.117,-0.1171,-0.1171,-0.1202,-0.1202,-0.1202,-0.1203,-0.1253,-0.1254,-0.1255,0,0,0,0,0,0,0,0,0,0,0,0,0,-0.1049,-0.1051,-0.112,-0.1121,-0.1121,-0.117,-0.1171,-0.1172,-0.1202,-0.1202,-0.1202,-0.1203,-0.1253,-0.1254,-0.1256,0,0,0,0,0,0,0,0,0,0,0,0,0,-0.1088,-0.1051,-0.112,-0.1142,-0.1145,-0.117,-0.1171,-0.1172,-0.1202,-0.1202,-0.1202,-0.1203,-0.1252,-0.1254,-0.1256,-0.1262,0,0,-0.1261,-0.1262,0,0,0,0,0,0,0,0,-0.1086,-0.109,-0.1138,-0.1141,-0.1144,-0.118,-0.1165,-0.1202,-0.1202,-0.118,-0.1203,-0.1203,-0.1229,-0.1232,-0.1241,-0.1265,-0.1267,-0.1261,-0.1262,-0.1263,-0.1264,0,0,0,0,0,0,0,-0.1083,-0.1088,-0.114,-0.1139,-0.1142,-0.115,-0.1155,-0.1172,-0.1202,-0.1182,-0.1185,-0.119,-0.123,-0.1239,-0.1243,-0.1267,-0.1261,-0.1263,-0.1264,-0.1265,-0.1297,-0.1297,0,0,0,0,0,0,-0.1077,-0.1086,-0.1138,-0.1141,-0.1115,-0.1151,-0.1157,-0.1168,-0.1202,-0.1208,-0.119,-0.1191,-0.1236,-0.124,-0.1244,-0.1254,-0.1263,-0.1265,-0.1266,-0.1298,-0.1297,-0.1297,0,0,0,0,0,0,-0.1075,-0.1081,-0.1136,-0.1114,-0.1122,-0.1152,-0.1164,-0.1169,-0.1178,-0.1208,-0.1214,-0.1194,-0.1237,-0.1242,-0.1257,-0.1256,-0.1266,-0.1267,-0.1298,-0.1297,-0.1297,-0.1272,0,0,0,0,0,0,-0.1073,-0.108,-0.1083,-0.1114,-0.1123,-0.1149,-0.1164,-0.117,-0.1182,-0.1184,-0.1213,-0.1218,-0.1237,-0.1254,-0.1259,-0.1258,-0.1269,-0.1298,-0.1298,-0.1297,-0.1273,-0.1271,-0.1269,0,0,0,0,0,-0.107,-0.1074,-0.1083,-0.109,-0.1127,-0.1148,-0.1153,-0.1175,-0.1181,-0.1184,-0.1203,-0.1218,-0.1255,-0.1256,-0.1261,-0.1261,-0.1298,-0.1298,-0.1297,-0.1274,-0.1271,-0.1269,0,0,0,0,0,0,-0.1043,-0.1079,-0.1089,-0.1104,-0.1123,-0.1154,-0.1158,-0.1172,-0.1189,-0.1191,-0.1217,-0.1223,-0.1236,-0.125,-0.125,-0.1268,-0.1278,-0.1279,-0.1259,-0.1256,-0.1254,-0.125,-0.127,0,0,0,0,0,-0.1038,-0.1053,-0.1083,-0.1093,-0.1102,-0.1128,-0.1138,-0.1153,-0.1174,-0.1182,-0.1202,-0.1222,-0.1238,-0.1248,-0.1265,-0.1275,-0.1282,-0.1278,-0.1276,-0.1274,-0.1274,-0.1279,-0.1278,-0.1296,-0.1296,-0.1296,0,0,-0.1029,-0.1051,-0.1058,-0.1088,-0.1104,-0.1118,-0.1135,-0.1149,-0.1159,-0.1184,-0.12,-0.1215,-0.1238,-0.1251,-0.1258,-0.1264,-0.127,-0.1273,-0.1271,-0.1273,-0.1279,-0.1277,-0.1275,-0.1295,-0.1295,-0.1295,0,0,-0.102,-0.1038,-0.1047,-0.1063,-0.1088,-0.1106,-0.1108,-0.1137,-0.1148,-0.1164,-0.1183,-0.1195,-0.1223,-0.1238,-0.125,-0.1245,-0.1258,-0.1249,-0.1238,-0.1244,-0.1242,-0.1241,-0.1238,-0.1237,-0.125,-0.1249,-0.1249,0,-0.1005,-0.1027,-0.105,-0.1063,-0.1075,-0.1098,-0.1108,-0.1122,-0.1151,-0.1159,-0.1165,-0.1199,-0.1217,-0.1233,-0.1231,-0.124,-0.1243,-0.1246,-0.1241,-0.124,-0.1239,-0.1237,-0.1236,-0.1248,-0.1248,-0.1248,-0.1249,0,-0.1007,-0.1022,-0.1027,-0.1054,-0.1067,-0.1077,-0.1102,-0.1112,-0.1125,-0.1142,-0.1157,-0.1179,-0.12,-0.1205,-0.1219,-0.1223,-0.1225,-0.1236,-0.1246,-0.1235,-0.1234,-0.1233,-0.1246,-0.1247,-0.1247,-0.1248,0,0,-0.0982,-0.1021,-0.1023,-0.1035,-0.1064,-0.1075,-0.1087,-0.1107,-0.1115,-0.1134,-0.1144,-0.1166,-0.1175,-0.1188,-0.1204,-0.1209,-0.1202,-0.1218,-0.1219,-0.1214,-0.1207,-0.1198,-0.1197,-0.1211,-0.1211,-0.1211,-0.1205,0,-0.0976,-0.0998,-0.1019,-0.1034,-0.1047,-0.1069,-0.1079,-0.1097,-0.1113,-0.1126,-0.1143,-0.1158,-0.117,-0.1178,-0.1184,-0.1202,-0.1201,-0.1203,-0.122,-0.122,-0.1213,-0.1196,-0.1188,-0.118,-0.1204,-0.1204,-0.1204,0,-0.0972,-0.099,-0.1006,-0.1032,-0.1039,-0.1047,-0.1067,-0.108,-0.1101,-0.1112,-0.1126,-0.1142,-0.1154,-0.1164,-0.1181,-0.1181,-0.1189,-0.1199,-0.12,-0.1201,-0.1211,-0.1197,-0.1179,-0.1177,-0.1203,-0.1203,-0.1203,0,-0.0951,-0.0979,-0.0992,-0.1001,-0.1033,-0.1038,-0.1052,-0.1073,-0.1084,-0.1101,-0.1108,-0.1126,-0.1136,-0.115,-0.117,-0.1175,-0.1185,-0.1196,-0.1193,-0.1193,-0.1194,-0.1193,-0.1176,-0.1201,-0.1201,-0.1201,-0.1201,0,-0.0942,-0.095,-0.0982,-0.099,-0.1,-0.1024,-0.1033,-0.1048,-0.1066,-0.1077,-0.1097,-0.1107,-0.1134,-0.1146,-0.1162,-0.1173,-0.1178,-0.1186,-0.119,-0.1184,-0.1182,-0.1189,-0.119,-0.12,-0.12,-0.12,-0.1201,0,-0.092,-0.0941,-0.0957,-0.0985,-0.0992,-0.0998,-0.1022,-0.103,-0.1047,-0.106,-0.1064,-0.109,-0.1106,-0.1128,-0.115,-0.1161,-0.1169,-0.1176,-0.1162,-0.1164,-0.116,-0.1159,-0.1145,-0.1144,-0.117,-0.117,-0.1169,0,-0.0912,-0.0919,-0.0948,-0.0956,-0.0969,-0.0983,-0.0993,-0.1017,-0.1027,-0.1051,-0.1056,-0.1073,-0.1088,-0.1111,-0.1132,-0.1149,-0.1156,-0.1149,-0.1158,-0.1151,-0.1154,-0.1153,-0.1153,-0.1147,-0.1147,-0.1146,-0.1146,0,-0.0896,-0.0906,-0.0921,-0.0939,-0.0951,-0.0967,-0.0984,-0.0989,-0.1016,-0.1027,-0.1043,-0.1054,-0.1077,-0.1093,-0.1112,-0.1126,-0.114,-0.1143,-0.1143,-0.1136,-0.1127,-0.1131,-0.1155,-0.1143,-0.1143,-0.1144,-0.1144,-0.1144,-0.088,-0.0887,-0.0908,-0.0923,-0.0938,-0.0953,-0.0961,-0.0979,-0.0993,-0.1013,-0.1026,-0.1041,-0.1061,-0.1088,-0.1101,-0.1112,-0.1118,-0.1119,-0.1119,-0.1118,-0.1115,-0.1126,-0.1116,-0.1116,-0.1116,-0.1117,-0.1117,0,-0.0864,-0.0878,-0.0892,-0.0915,-0.0927,-0.0939,-0.0958,-0.0967,-0.098,-0.0998,-0.1012,-0.1029,-0.1045,-0.1067,-0.1084,-0.1089,-0.1095,-0.1092,-0.1092,-0.1094,-0.111,-0.1108,-0.1086,-0.1086,-0.1086,-0.1086,-0.1086,-0.1086,-0.0857,-0.0868,-0.0881,-0.09,-0.0914,-0.0929,-0.0939,-0.0952,-0.0966,-0.0985,-0.0998,-0.1012,-0.1031,-0.1049,-0.1064,-0.107,-0.1074,-0.1069,-0.1076,-0.1091,-0.1093,-0.1096,-0.1094,-0.107,-0.107,-0.106,-0.106,-0.106]}]]